417  
ASUS44 KLCH 251210  
RWRLCH  
REGIONAL WEATHER ROUNDUP  
NATIONAL WEATHER SERVICE LAKE CHARLES LA  
700 AM CDT SAT MAY 25 2024  
 
NOTE: "FAIR" INDICATES FEW OR NO CLOUDS BELOW 12,000 FEET WITH NO  
SIGNIFICANT WEATHER AND/OR S TO VISIBILITY
.  
 
ACROSS SOUTHEAST TEXAS  
 
CITY SKY/WX TMP DP RH WIND PRES REMARKS
 
BEAUMONT CLOUDY 78 76 93 E5 29.84R FOG  
BEAUMONT CITY CLOUDY 78 77 96 SE5 29.84S FOG  
ORANGE CLEAR 81 78 90 SE5 29.87R FOG  
JASPER CLOUDY 77 77 100 VRB3 29.84R FOG  

 
 
ACROSS CENTRAL LOUISIANA  
 
CITY SKY/WX TMP DP RH WIND PRES REMARKS
 
LEESVILLE CLOUDY 78 76 92 S14 29.84R  
FULLERTON LGT RAIN 77 75 93 CALM 29.83S  
ALEXANDRIA INT CLOUDY 79 76 90 S3 29.87R FOG  
ESLER FIELD CLOUDY 78 76 93 CALM 29.87R FOG  
DERIDDER CLOUDY 77 77 100 SE8 29.86S  
OAKDALE CLOUDY 77 73 88 CALM 29.88R FOG  
OPELOUSAS CLOUDY 76 75 95 SW3 29.89R FOG  

 
 
ACROSS SOUTHWEST AND SOUTH CENTRAL LOUISIANA  
 
CITY SKY/WX TMP DP RH WIND PRES REMARKS
 
DEQUINCY N/A 76 75 97 SE5 29.86S FOG  
SULPHUR MOCLDY 80 78 94 SE8 29.87R  
LAKE CHARLES CLEAR 78 77 96 SE5 29.87R FOG  
CHENNAULT INT CLEAR 77 75 94 SE6 29.86S FOG  
JENNINGS CLOUDY 77 77 100 MISG 29.88R  
LAFAYETTE CLEAR 78 78 100 CALM 29.88R  
NEW IBERIA PTCLDY 76 75 97 S3 29.88R FOG  
ABBEVILLE MOCLDY 79 79 100 S5 29.87R  
PATTERSON CLEAR 77 77 100 S7 29.88S  
SALT POINT N/A 79 75 87 VRB3 29.87R  

 
 
SELECTED SITES ACROSS THE REGION  
 
CITY SKY/WX TMP DP RH WIND PRES REMARKS
 
HOUSTON BUSH CLOUDY 80 77 90 SE8 29.81R FOG  
HOUSTON HOBBY MOCLDY 80 77 90 SE5 29.81R FOG  
GALVESTON CLOUDY 81 79 94 S14 29.82R  
COLLEGE STAT CLOUDY 78 76 93 S6 29.80R FOG  
CONROE CLOUDY 77 76 96 SE5 29.83R FOG  
HUNTSVILLE CLOUDY 78 76 93 S7 29.82R  
LUFKIN CLOUDY 77 76 96 SE6 29.83R  
SHREVEPORT MOCLDY 79 75 89 SE5 29.85R  
MONROE SUNNY 77 74 90 CALM 29.87R  
NATCHEZ MS CLOUDY 77 74 90 S3 29.90R FOG  
BATON ROUGE MOSUNNY 79 76 90 S5 29.88R  
N.O. INTL ARPT PTSUNNY 79 76 90 S3 29.88R  
SLIDELL CLOUDY 78 75 90 CALM 29.89R  

 
 
MARINE REPORTS  
 
STATION/POSITION TIME SKY/WX TEMP WIND PRES VSBY
 
AIR SEA DIR/SP/G  
(UTC) (F) (DEG/KT/KT) (MB) (MI)  
BUOY 30 S HIGH I 1150 83 160/ 10/ 12 1009.5R  
WVE H/P(F/S)= 4/ 7  
 
SEA RIM ST PARK NOT AVBL  
PORT ARTHUR 1124 80 80 120/ 3/ 5 1009.2  
TEXAS POINT 1124 80 81 160/ 11/ 14 1008.6  
CALCASIEU PASS 1124 81 83 170/ 7/ 9 1011.2  
LK CHARLES BEACH 1124 78 88 1011.4  
MARSH ISLAND NOT AVBL  
FRESH WATER LOCK 1124 81 83 130/ 9/ 14 1015.0  
AMERADA PASS 1130 79 170/ 2/ 5 1012.0S  

 
 
 
CLICK HERE TO GO TO PREVIOUS BULLETINS.

The Nexlab LA Page
The Nexlab TX Page Main Text Page